TimeCST,TemperatureF,Dew PointF,Humidity,Sea Level PressureIn,VisibilityMPH,Wind Direction,Wind SpeedMPH,Gust SpeedMPH,PrecipitationIn,Events,Conditions,WindDirDegrees,DateUTC
12:15 AM,35.8,35.8,100,29.86,10.0,NW,10.4,-,N/A,,Scattered Clouds,320,2013-12-14 06:15:00
12:35 AM,37.2,37.2,100,29.88,5.0,NNW,16.1,23.0,N/A,,Overcast,330,2013-12-14 06:35:00
12:55 AM,37.4,37.4,100,29.90,4.0,NNW,18.4,23.0,N/A,,Overcast,340,2013-12-14 06:55:00
1:15 AM,37.2,37.2,100,29.88,4.0,NNW,19.6,25.3,N/A,,Overcast,340,2013-12-14 07:15:00
1:35 AM,36.9,36.9,100,29.90,5.0,North,19.6,28.8,N/A,,Overcast,350,2013-12-14 07:35:00
1:55 AM,36.5,36.5,100,29.92,7.0,NNW,17.3,20.7,N/A,,Overcast,340,2013-12-14 07:55:00
2:15 AM,35.6,34.7,97,29.94,7.0,NNW,16.1,23.0,N/A,,Overcast,330,2013-12-14 08:15:00
2:35 AM,33.8,32.5,95,29.95,7.0,NNW,21.9,27.6,N/A,,Overcast,340,2013-12-14 08:35:00
2:55 AM,32.9,32.0,96,29.96,7.0,NNW,19.6,26.5,N/A,,Overcast,340,2013-12-14 08:55:00
3:15 AM,32.9,32.0,96,29.97,7.0,NNW,16.1,23.0,N/A,,Overcast,330,2013-12-14 09:15:00
3:35 AM,32.9,31.6,95,29.99,7.0,NNW,19.6,25.3,N/A,,Overcast,340,2013-12-14 09:35:00
3:55 AM,32.4,31.1,95,29.99,7.0,NNW,20.7,24.2,N/A,,Overcast,340,2013-12-14 09:55:00
4:15 AM,32.0,30.2,93,30.01,5.0,NNW,18.4,25.3,N/A,,Overcast,330,2013-12-14 10:15:00
4:35 AM,31.8,29.3,90,30.03,7.0,NNW,16.1,24.2,N/A,,Overcast,330,2013-12-14 10:35:00
4:55 AM,31.1,28.8,91,30.04,7.0,NNW,18.4,27.6,N/A,,Overcast,330,2013-12-14 10:55:00
5:15 AM,31.1,28.4,90,30.07,5.0,North,20.7,28.8,N/A,,Overcast,350,2013-12-14 11:15:00
5:35 AM,30.7,27.9,89,30.08,5.0,NNW,21.9,29.9,N/A,,Overcast,330,2013-12-14 11:35:00
5:55 AM,29.8,26.8,88,30.09,7.0,North,21.9,31.1,N/A,,Overcast,350,2013-12-14 11:55:00
6:15 AM,29.8,26.2,86,30.10,7.0,North,19.6,31.1,N/A,,Overcast,350,2013-12-14 12:15:00
6:35 AM,29.7,25.7,85,30.11,7.0,North,20.7,-,N/A,,Overcast,350,2013-12-14 12:35:00
6:55 AM,29.7,26.1,86,30.13,7.0,North,16.1,20.7,N/A,,Overcast,350,2013-12-14 12:55:00
7:15 AM,29.3,25.7,86,30.14,7.0,North,13.8,-,N/A,,Overcast,350,2013-12-14 13:15:00
7:35 AM,29.1,25.5,86,30.14,7.0,NNW,20.7,26.5,N/A,,Overcast,340,2013-12-14 13:35:00
7:55 AM,28.8,25.2,86,30.14,7.0,North,20.7,25.3,N/A,,Overcast,350,2013-12-14 13:55:00
8:15 AM,28.2,24.6,86,30.16,7.0,North,17.3,29.9,N/A,,Overcast,350,2013-12-14 14:15:00
8:35 AM,28.0,24.4,86,30.17,7.0,NNW,20.7,27.6,N/A,,Overcast,340,2013-12-14 14:35:00
8:55 AM,27.5,23.9,86,30.18,7.0,North,20.7,28.8,N/A,,Overcast,350,2013-12-14 14:55:00
9:15 AM,28.0,24.1,85,30.19,7.0,NNW,16.1,26.5,N/A,,Overcast,340,2013-12-14 15:15:00
9:35 AM,27.3,23.2,84,30.21,7.0,North,16.1,28.8,N/A,,Overcast,350,2013-12-14 15:35:00
9:55 AM,27.7,23.2,83,30.23,7.0,NW,16.1,24.2,N/A,,Overcast,320,2013-12-14 15:55:00
10:15 AM,28.0,23.4,83,30.24,10.0,NNW,16.1,-,N/A,,Overcast,340,2013-12-14 16:15:00
10:35 AM,28.8,23.5,81,30.24,10.0,NNW,16.1,24.2,N/A,,Mostly Cloudy,330,2013-12-14 16:35:00
10:55 AM,29.3,23.5,79,30.25,10.0,NNW,19.6,-,N/A,,Mostly Cloudy,330,2013-12-14 16:55:00
11:15 AM,31.3,24.1,75,30.26,10.0,NNW,15.0,-,N/A,,Scattered Clouds,340,2013-12-14 17:15:00
11:35 AM,32.2,24.3,73,30.25,10.0,NNW,18.4,21.9,N/A,,Clear,340,2013-12-14 17:35:00
11:55 AM,33.4,24.8,71,30.24,10.0,NNW,16.1,19.6,N/A,,Clear,340,2013-12-14 17:55:00
12:15 PM,34.0,25.0,70,30.23,10.0,NW,11.5,18.4,N/A,,Clear,310,2013-12-14 18:15:00
12:35 PM,35.6,25.0,65,30.23,10.0,NNW,13.8,20.7,N/A,,Clear,330,2013-12-14 18:35:00
12:55 PM,36.9,25.7,64,30.23,10.0,NW,12.7,18.4,N/A,,Clear,310,2013-12-14 18:55:00
1:15 PM,38.1,25.7,61,30.23,10.0,NW,10.4,16.1,N/A,,Clear,320,2013-12-14 19:15:00
1:35 PM,39.4,25.5,58,30.23,10.0,NW,11.5,20.7,N/A,,Clear,320,2013-12-14 19:35:00
1:55 PM,40.8,25.7,55,30.23,10.0,NW,13.8,20.7,N/A,,Clear,320,2013-12-14 19:55:00
2:15 PM,41.2,24.8,52,30.23,10.0,NW,11.5,19.6,N/A,,Clear,310,2013-12-14 20:15:00
2:35 PM,42.4,25.3,51,30.23,10.0,NW,10.4,-,N/A,,Clear,310,2013-12-14 20:35:00
2:55 PM,42.6,25.2,50,30.23,10.0,NNW,9.2,-,N/A,,Clear,330,2013-12-14 20:55:00
3:15 PM,43.9,23.9,45,30.23,10.0,NNW,16.1,21.9,N/A,,Clear,340,2013-12-14 21:15:00
3:35 PM,43.9,24.1,46,30.23,10.0,NW,10.4,-,N/A,,Clear,320,2013-12-14 21:35:00
3:55 PM,43.9,24.8,47,30.23,10.0,NW,11.5,-,N/A,,Clear,310,2013-12-14 21:55:00
4:15 PM,43.7,25.0,48,30.23,10.0,NW,9.2,16.1,N/A,,Clear,320,2013-12-14 22:15:00
4:35 PM,43.3,25.2,49,30.23,10.0,NNW,9.2,-,N/A,,Clear,330,2013-12-14 22:35:00
4:55 PM,42.6,25.5,51,30.24,10.0,NNW,6.9,-,N/A,,Clear,330,2013-12-14 22:55:00
5:15 PM,41.0,26.4,56,30.24,10.0,NNW,5.8,-,N/A,,Clear,330,2013-12-14 23:15:00
5:35 PM,38.8,26.4,61,30.24,10.0,NW,3.5,-,N/A,,Clear,320,2013-12-14 23:35:00
5:55 PM,37.6,26.2,64,30.25,10.0,Calm,Calm,-,N/A,,Clear,0,2013-12-14 23:55:00
6:15 PM,32.5,24.8,73,30.25,10.0,Calm,Calm,-,N/A,,Clear,0,2013-12-15 00:15:00
6:35 PM,34.0,25.7,72,30.25,10.0,Calm,Calm,-,N/A,,Clear,0,2013-12-15 00:35:00
6:55 PM,32.4,24.6,73,30.26,10.0,Calm,Calm,-,N/A,,Clear,0,2013-12-15 00:55:00
7:15 PM,32.7,25.5,75,30.26,10.0,Calm,Calm,-,N/A,,Clear,0,2013-12-15 01:15:00
7:35 PM,32.0,25.2,76,30.26,10.0,Calm,Calm,-,N/A,,Clear,0,2013-12-15 01:35:00
7:55 PM,30.7,24.8,79,30.26,10.0,Calm,Calm,-,N/A,,Clear,0,2013-12-15 01:55:00
8:15 PM,26.1,22.8,88,30.26,10.0,Calm,Calm,-,N/A,,Clear,0,2013-12-15 02:15:00
8:35 PM,26.4,23.7,90,30.26,10.0,SSW,4.6,-,N/A,,Clear,210,2013-12-15 02:35:00
8:55 PM,26.1,23.4,90,30.26,10.0,Calm,Calm,-,N/A,,Clear,0,2013-12-15 02:55:00
9:15 PM,26.4,23.7,90,30.26,10.0,Calm,Calm,-,N/A,,Clear,0,2013-12-15 03:15:00
9:35 PM,27.5,24.1,87,30.27,10.0,Calm,Calm,-,N/A,,Clear,0,2013-12-15 03:35:00
9:55 PM,26.4,23.2,88,30.27,10.0,Calm,Calm,-,N/A,,Clear,0,2013-12-15 03:55:00
10:15 PM,25.7,22.8,89,30.27,10.0,Calm,Calm,-,N/A,,Clear,0,2013-12-15 04:15:00
10:35 PM,27.5,24.6,89,30.27,10.0,Calm,Calm,-,N/A,,Clear,0,2013-12-15 04:35:00
10:55 PM,25.5,22.5,88,30.26,10.0,Calm,Calm,-,N/A,,Clear,0,2013-12-15 04:55:00
11:15 PM,26.1,23.0,88,30.27,10.0,Calm,Calm,-,N/A,,Clear,0,2013-12-15 05:15:00
11:35 PM,28.2,25.0,88,30.28,10.0,Calm,Calm,-,N/A,,Clear,0,2013-12-15 05:35:00
11:55 PM,26.4,23.9,90,30.27,10.0,Calm,Calm,-,N/A,,Clear,0,2013-12-15 05:55:00